| time (UTC) | temp C | wind direction | speed KPH | gust KPH | rain 1hr cm | rain 24hr cm | rain mn cm | humidity % | barometer mb |
| 20260906195511 | 32 | 41 | 8.0 | 16.1 | 0.00 | 0.00 | 0.00 | 52 | 1014.0 |
| 20260906195015 | 32 | 57 | 8.0 | 22.5 | 0.00 | 0.00 | 0.00 | 53 | 1014.0 |
| 20260906194527 | 31 | 135 | 1.6 | 22.5 | 0.00 | 0.00 | 0.00 | 53 | 1014.0 |
| 20260906194017 | 31 | 133 | 3.2 | 16.1 | 0.00 | 0.00 | 0.00 | 54 | 1014.1 |
| 20260906193518 | 31 | 55 | 3.2 | 16.1 | 0.00 | 0.00 | 0.00 | 56 | 1014.2 |
| 20260906193030 | 31 | 65 | 6.4 | 16.1 | 0.00 | 0.00 | 0.00 | 57 | 1014.4 |
| 20260906192507 | 30 | 83 | 3.2 | 16.1 | 0.00 | 0.00 | 0.00 | 57 | 1014.6 |
| 20260906192007 | 30 | 87 | 6.4 | 16.1 | 0.00 | 0.00 | 0.00 | 57 | 1014.7 |
| 20260906191514 | 30 | 49 | 9.7 | 16.1 | 0.00 | 0.00 | 0.00 | 56 | 1014.9 |
| 20260906191009 | 30 | 26 | 9.7 | 19.3 | 0.00 | 0.00 | 0.00 | 57 | 1015.1 |
| 20260906190512 | 30 | 55 | 9.7 | 19.3 | 0.00 | 0.00 | 0.00 | 57 | 1015.2 |
| 20260906190026 | 30 | 69 | 8.0 | 16.1 | 0.00 | 0.00 | 0.00 | 56 | 1015.4 |
| 20260906185514 | 30 | 69 | 6.4 | 16.1 | 0.00 | 0.00 | 0.00 | 57 | 1015.5 |
| 20260906185015 | 30 | 53 | 4.8 | 16.1 | 0.00 | 0.00 | 0.00 | 58 | 1015.5 |
| 20260906184530 | 30 | 29 | 6.4 | 16.1 | 0.00 | 0.00 | 0.00 | 57 | 1015.6 |
| 20260906184018 | 30 | 44 | 8.0 | 16.1 | 0.00 | 0.00 | 0.00 | 59 | 1015.8 |
| 20260906183517 | 30 | 57 | 4.8 | 11.3 | 0.00 | 0.00 | 0.00 | 59 | 1015.9 |
| 20260906183008 | 29 | 78 | 4.8 | 14.5 | 0.00 | 0.00 | 0.00 | 59 | 1016.0 |
| 20260906182507 | 29 | 56 | 8.0 | 14.5 | 0.00 | 0.00 | 0.00 | 58 | 1016.2 |
| 20260906182009 | 29 | 57 | 3.2 | 14.5 | 0.00 | 0.00 | 0.00 | 59 | 1016.4 |
| 20260906181536 | 29 | 63 | 6.4 | 16.1 | 0.00 | 0.00 | 0.00 | 59 | 1016.5 |
| 20260906181010 | 28 | 34 | 8.0 | 19.3 | 0.00 | 0.00 | 0.00 | 59 | 1016.5 |
| 20260906180512 | 28 | 30 | 6.4 | 19.3 | 0.00 | 0.00 | 0.00 | 60 | 1016.6 |
| 20260906180028 | 28 | 30 | 4.8 | 14.5 | 0.00 | 0.00 | 0.00 | 60 | 1016.8 |
| 20260906175514 | 28 | 27 | 8.0 | 12.9 | 0.00 | 0.00 | 0.00 | 60 | 1017.0 |
| 20260906175019 | 28 | 44 | 3.2 | 14.5 | 0.00 | 0.00 | 0.00 | 61 | 1017.0 |
| 20260906174533 | 28 | 50 | 4.8 | 17.7 | 0.00 | 0.00 | 0.00 | 61 | 1017.1 |
| 20260906174016 | 28 | 22 | 4.8 | 17.7 | 0.00 | 0.00 | 0.00 | 61 | 1017.1 |
| 20260906173505 | 28 | 43 | 8.0 | 17.7 | 0.00 | 0.00 | 0.00 | 61 | 1016.9 |
| 20260906173013 | 28 | 65 | 6.4 | 14.5 | 0.00 | 0.00 | 0.00 | 61 | 1017.0 |
| 20260906172510 | 28 | 47 | 3.2 | 14.5 | 0.00 | 0.00 | 0.00 | 62 | 1017.1 |
| 20260906172010 | 28 | 22 | 8.0 | 17.7 | 0.00 | 0.00 | 0.00 | 62 | 1017.2 |
| 20260906171518 | 28 | 34 | 8.0 | 17.7 | 0.00 | 0.00 | 0.00 | 62 | 1017.3 |
| 20260906171012 | 27 | 52 | 3.2 | 16.1 | 0.00 | 0.00 | 0.00 | 62 | 1017.3 |
| 20260906170518 | 27 | 45 | 6.4 | 16.1 | 0.00 | 0.00 | 0.00 | 62 | 1017.4 |
| 20260906170029 | 27 | 33 | 9.7 | 17.7 | 0.00 | 0.00 | 0.00 | 62 | 1017.4 |
| 20260906165516 | 27 | 36 | 8.0 | 17.7 | 0.00 | 0.00 | 0.00 | 63 | 1017.5 |
| 20260906165020 | 27 | 51 | 3.2 | 8.0 | 0.00 | 0.00 | 0.00 | 64 | 1017.7 |
| 20260906164539 | 27 | 66 | 4.8 | 14.5 | 0.00 | 0.00 | 0.00 | 65 | 1017.8 |
| 20260906164016 | 27 | 31 | 4.8 | 14.5 | 0.00 | 0.00 | 0.00 | 64 | 1017.8 |
| 20260906163507 | 27 | 34 | 4.8 | 14.5 | 0.00 | 0.00 | 0.00 | 64 | 1017.8 |
| 20260906163014 | 27 | 67 | 6.4 | 16.1 | 0.00 | 0.00 | 0.00 | 65 | 1017.8 |
| 20260906162512 | 27 | 61 | 6.4 | 16.1 | 0.00 | 0.00 | 0.00 | 65 | 1017.9 |
| 20260906162012 | 27 | 68 | 4.8 | 16.1 | 0.00 | 0.00 | 0.00 | 66 | 1017.8 |
| 20260906161524 | 27 | 13 | 8.0 | 19.3 | 0.00 | 0.00 | 0.00 | 66 | 1017.7 |
| 20260906161014 | 27 | 36 | 9.7 | 19.3 | 0.00 | 0.00 | 0.00 | 65 | 1017.8 |
| 20260906160514 | 27 | 9 | 6.4 | 16.1 | 0.00 | 0.00 | 0.00 | 65 | 1017.8 |
| 20260906160031 | 26 | 17 | 9.7 | 19.3 | 0.00 | 0.00 | 0.00 | 65 | 1017.7 |
| 20260906155517 | 26 | 39 | 8.0 | 20.9 | 0.00 | 0.00 | 0.00 | 65 | 1017.7 |
| 20260906155017 | 26 | 36 | 6.4 | 20.9 | 0.00 | 0.00 | 0.00 | 65 | 1017.6 |
| 20260906154541 | 26 | 9 | 12.9 | 22.5 | 0.00 | 0.00 | 0.00 | 65 | 1017.6 |
| 20260906154007 | 26 | 19 | 9.7 | 22.5 | 0.00 | 0.00 | 0.00 | 65 | 1017.6 |
| 20260906153511 | 26 | 30 | 8.0 | 17.7 | 0.00 | 0.00 | 0.00 | 66 | 1017.5 |
| 20260906153021 | 26 | 344 | 6.4 | 17.7 | 0.00 | 0.00 | 0.00 | 66 | 1017.5 |
| 20260906152512 | 26 | 11 | 6.4 | 17.7 | 0.00 | 0.00 | 0.00 | 67 | 1017.5 |
| 20260906152012 | 25 | 360 | 6.4 | 14.5 | 0.00 | 0.00 | 0.00 | 68 | 1017.5 |
| 20260906151527 | 25 | 346 | 9.7 | 14.5 | 0.00 | 0.00 | 0.00 | 69 | 1017.5 |
| 20260906151017 | 25 | 15 | 4.8 | 14.5 | 0.00 | 0.00 | 0.00 | 69 | 1017.4 |
| 20260906150517 | 25 | 336 | 6.4 | 17.7 | 0.00 | 0.00 | 0.00 | 69 | 1017.3 |
| 20260906150031 | 25 | 352 | 8.0 | 17.7 | 0.00 | 0.00 | 0.00 | 69 | 1017.3 |
| 20260906145519 | 25 | 331 | 9.7 | 17.7 | 0.00 | 0.00 | 0.00 | 69 | 1017.3 |
| 20260906145017 | 25 | 340 | 11.3 | 17.7 | 0.00 | 0.00 | 0.00 | 69 | 1017.2 |
| 20260906144515 | 25 | 348 | 8.0 | 14.5 | 0.00 | 0.00 | 0.00 | 69 | 1017.2 |
| 20260906144008 | 25 | 317 | 6.4 | 12.9 | 0.00 | 0.00 | 0.00 | 69 | 1017.3 |
| 20260906143512 | 25 | 351 | 8.0 | 12.9 | 0.00 | 0.00 | 0.00 | 68 | 1017.3 |
| 20260906143024 | 25 | 342 | 6.4 | 12.9 | 0.00 | 0.00 | 0.00 | 68 | 1017.3 |
| 20260906142514 | 25 | 324 | 4.8 | 8.0 | 0.00 | 0.00 | 0.00 | 68 | 1017.3 |
| 20260906142017 | 25 | 342 | 4.8 | 6.4 | 0.00 | 0.00 | 0.00 | 68 | 1017.4 |
| 20260906141533 | 25 | 325 | 1.6 | 11.3 | 0.00 | 0.00 | 0.00 | 69 | 1017.3 |
| 20260906141019 | 25 | 334 | 3.2 | 12.9 | 0.00 | 0.00 | 0.00 | 69 | 1017.4 |
| 20260906141007 | 25 | 333 | 3.2 | 12.9 | 0.00 | 0.00 | 0.00 | 68 | 1017.4 |
| 20260906140506 | 25 | 308 | 8.0 | 17.7 | 0.00 | 0.00 | 0.00 | 68 | 1017.5 |
| 20260906140007 | 25 | 309 | 8.0 | 17.7 | 0.00 | 0.00 | 0.00 | 68 | 1017.6 |
| 20260906135504 | 25 | 319 | 11.3 | 25.7 | 0.00 | 0.00 | 0.00 | 69 | 1017.6 |
| 20260906135003 | 25 | 304 | 12.9 | 25.7 | 0.00 | 0.00 | 0.00 | 68 | 1017.5 |
| 20260906134511 | 25 | 344 | 14.5 | 22.5 | 0.00 | 0.00 | 0.00 | 69 | 1017.6 |
| 20260906134008 | 25 | 162 | 0.0 | 0.0 | 0.00 | 0.00 | 0.00 | 65 | 1016.9 |
| 20260906133505 | 25 | 162 | 0.0 | 0.0 | 0.00 | 0.00 | 0.00 | 66 | 1016.7 |
| 20260906133004 | 24 | 162 | 0.0 | 0.0 | 0.00 | 0.00 | 0.00 | 65 | 1016.6 |
| 20260906132504 | 24 | 162 | 0.0 | 0.0 | 0.00 | 0.00 | 0.00 | 66 | 1016.5 |
| 20260906132004 | 24 | 162 | 0.0 | 0.0 | 0.00 | 0.00 | 0.00 | 66 | 1016.3 |
| 20260906131511 | 24 | 162 | 0.0 | 0.0 | 0.00 | 0.00 | 0.00 | 67 | 1016.2 |
| 20260906131004 | 23 | 162 | 0.0 | 0.0 | 0.00 | 0.00 | 0.00 | 68 | 1016.1 |
| 20260906130504 | 23 | 162 | 0.0 | 0.0 | 0.00 | 0.00 | 0.00 | 67 | 1016.0 |
| 20260906130007 | 23 | 162 | 0.0 | 0.0 | 0.00 | 0.00 | 0.00 | 68 | 1016.0 |
| 20260906125503 | 23 | 162 | 0.0 | 0.0 | 0.00 | 0.00 | 0.00 | 67 | 1015.9 |
| 20260906125005 | 23 | 162 | 0.0 | 0.0 | 0.00 | 0.00 | 0.00 | 67 | 1015.8 |
| 20260906124508 | 23 | 162 | 0.0 | 0.0 | 0.00 | 0.00 | 0.00 | 68 | 1015.7 |
| 20260906124006 | 23 | 162 | 0.0 | 0.0 | 0.00 | 0.00 | 0.00 | 67 | 1015.7 |
| 20260906123503 | 23 | 162 | 0.0 | 0.0 | 0.00 | 0.00 | 0.00 | 67 | 1015.7 |
| 20260906123010 | 23 | 162 | 0.0 | 0.0 | 0.00 | 0.00 | 0.00 | 67 | 1015.6 |
| 20260906122505 | 23 | 162 | 0.0 | 0.0 | 0.00 | 0.00 | 0.00 | 67 | 1015.6 |
| 20260906122003 | 23 | 166 | 0.0 | 0.0 | 0.00 | 0.00 | 0.00 | 67 | 1015.5 |
| 20260906121507 | 23 | 156 | 0.0 | 0.0 | 0.00 | 0.00 | 0.00 | 67 | 1015.4 |
| 20260906121007 | 23 | 174 | 0.0 | 3.2 | 0.00 | 0.00 | 0.00 | 67 | 1015.3 |
| 20260906120506 | 23 | 149 | 0.0 | 6.4 | 0.00 | 0.00 | 0.00 | 67 | 1015.2 |
| 20260906120007 | 23 | 159 | 1.6 | 6.4 | 0.00 | 0.00 | 0.00 | 66 | 1015.2 |
| 20260906115504 | 23 | 136 | 1.6 | 6.4 | 0.00 | 0.00 | 0.00 | 66 | 1015.1 |
| 20260906115006 | 23 | 157 | 1.6 | 6.4 | 0.00 | 0.00 | 0.00 | 66 | 1015.0 |
| 20260906114523 | 23 | 182 | 3.2 | 6.4 | 0.00 | 0.00 | 0.00 | 66 | 1015.0 |
| 20260906114007 | 23 | 156 | 1.6 | 8.0 | 0.00 | 0.00 | 0.00 | 66 | 1015.0 |
| 20260906113502 | 24 | 157 | 3.2 | 8.0 | 0.00 | 0.00 | 0.00 | 66 | 1015.0 |
| 20260906113008 | 24 | 146 | 3.2 | 8.0 | 0.00 | 0.00 | 0.00 | 66 | 1014.9 |
| 20260906112503 | 24 | 160 | 3.2 | 8.0 | 0.00 | 0.00 | 0.00 | 66 | 1014.7 |
| 20260906112007 | 24 | 142 | 0.0 | 9.7 | 0.00 | 0.00 | 0.00 | 66 | 1014.5 |
| 20260906111511 | 24 | 148 | 4.8 | 9.7 | 0.00 | 0.00 | 0.00 | 66 | 1014.4 |
| 20260906111006 | 24 | 149 | 4.8 | 9.7 | 0.00 | 0.00 | 0.00 | 66 | 1014.4 |
| 20260906110506 | 24 | 140 | 4.8 | 11.3 | 0.00 | 0.00 | 0.00 | 66 | 1014.3 |
| 20260906110013 | 24 | 150 | 4.8 | 11.3 | 0.00 | 0.00 | 0.00 | 66 | 1014.3 |
| 20260906105507 | 24 | 163 | 4.8 | 11.3 | 0.00 | 0.00 | 0.00 | 66 | 1014.3 |
| 20260906105008 | 24 | 98 | 6.4 | 11.3 | 0.00 | 0.00 | 0.00 | 66 | 1014.3 |
| 20260906104513 | 24 | 145 | 4.8 | 9.7 | 0.00 | 0.00 | 0.00 | 66 | 1014.2 |
| 20260906104002 | 24 | 128 | 4.8 | 11.3 | 0.00 | 0.00 | 0.00 | 66 | 1014.2 |
| 20260906103504 | 24 | 143 | 4.8 | 12.9 | 0.00 | 0.00 | 0.00 | 66 | 1014.3 |
| 20260906103008 | 24 | 139 | 4.8 | 12.9 | 0.00 | 0.00 | 0.00 | 66 | 1014.2 |
| 20260906102510 | 24 | 133 | 4.8 | 9.7 | 0.00 | 0.00 | 0.00 | 66 | 1014.3 |
| 20260906102009 | 24 | 142 | 3.2 | 9.7 | 0.00 | 0.00 | 0.00 | 66 | 1014.4 |
| 20260906101513 | 24 | 171 | 4.8 | 9.7 | 0.00 | 0.00 | 0.00 | 65 | 1014.4 |
| 20260906101008 | 24 | 170 | 4.8 | 9.7 | 0.00 | 0.00 | 0.00 | 65 | 1014.4 |
| 20260906100508 | 24 | 144 | 0.0 | 8.0 | 0.00 | 0.00 | 0.00 | 65 | 1014.4 |
| 20260906100014 | 24 | 153 | 0.0 | 4.8 | 0.00 | 0.00 | 0.00 | 65 | 1014.4 |
| 20260906095513 | 25 | 143 | 0.0 | 3.2 | 0.00 | 0.00 | 0.00 | 65 | 1014.4 |
| 20260906095008 | 25 | 137 | 0.0 | 6.4 | 0.00 | 0.00 | 0.00 | 65 | 1014.4 |
| 20260906094533 | 25 | 130 | 1.6 | 6.4 | 0.00 | 0.00 | 0.00 | 65 | 1014.4 |
| 20260906094005 | 25 | 132 | 1.6 | 6.4 | 0.00 | 0.00 | 0.00 | 65 | 1014.3 |
| 20260906093508 | 25 | 147 | 3.2 | 6.4 | 0.00 | 0.00 | 0.00 | 65 | 1014.3 |
| 20260906093018 | 25 | 145 | 0.0 | 8.0 | 0.00 | 0.00 | 0.00 | 65 | 1014.3 |
| 20260906092507 | 25 | 140 | 4.8 | 9.7 | 0.00 | 0.00 | 0.00 | 65 | 1014.2 |
| 20260906092008 | 25 | 134 | 4.8 | 9.7 | 0.00 | 0.00 | 0.00 | 65 | 1014.2 |
| 20260906091513 | 25 | 126 | 3.2 | 9.7 | 0.00 | 0.00 | 0.00 | 65 | 1014.1 |
| 20260906091011 | 25 | 141 | 4.8 | 9.7 | 0.00 | 0.00 | 0.00 | 64 | 1014.1 |
| 20260906090510 | 25 | 148 | 3.2 | 11.3 | 0.00 | 0.00 | 0.00 | 64 | 1014.0 |
| 20260906090024 | 25 | 153 | 3.2 | 11.3 | 0.00 | 0.00 | 0.00 | 64 | 1014.1 |
| 20260906085510 | 25 | 152 | 4.8 | 8.0 | 0.00 | 0.00 | 0.00 | 64 | 1014.2 |
| 20260906085008 | 25 | 139 | 4.8 | 11.3 | 0.00 | 0.00 | 0.00 | 64 | 1014.2 |
| 20260906084508 | 25 | 148 | 3.2 | 11.3 | 0.00 | 0.00 | 0.00 | 64 | 1014.2 |
| 20260906084007 | 25 | 160 | 4.8 | 9.7 | 0.00 | 0.00 | 0.00 | 65 | 1014.2 |
| 20260906083507 | 25 | 148 | 4.8 | 9.7 | 0.00 | 0.00 | 0.00 | 65 | 1014.1 |
| 20260906083026 | 25 | 145 | 3.2 | 9.7 | 0.00 | 0.00 | 0.00 | 65 | 1014.1 |
| 20260906082511 | 25 | 156 | 4.8 | 8.0 | 0.00 | 0.00 | 0.00 | 65 | 1014.1 |
| 20260906082010 | 25 | 157 | 4.8 | 11.3 | 0.00 | 0.00 | 0.00 | 65 | 1014.1 |
| 20260906081517 | 25 | 148 | 4.8 | 11.3 | 0.00 | 0.00 | 0.00 | 65 | 1014.1 |
| 20260906081010 | 25 | 136 | 4.8 | 9.7 | 0.00 | 0.00 | 0.00 | 65 | 1014.2 |
| 20260906080510 | 25 | 164 | 1.6 | 6.4 | 0.00 | 0.00 | 0.00 | 65 | 1014.2 |
| 20260906080017 | 25 | 166 | 1.6 | 6.4 | 0.00 | 0.00 | 0.00 | 66 | 1014.4 |
| 20260906075511 | 25 | 184 | 0.0 | 6.4 | 0.00 | 0.00 | 0.00 | 66 | 1014.3 |
| 20260906075007 | 25 | 186 | 0.0 | 4.8 | 0.00 | 0.00 | 0.00 | 67 | 1014.3 |
| 20260906074517 | 25 | 165 | 0.0 | 4.8 | 0.00 | 0.00 | 0.00 | 67 | 1014.2 |
| 20260906074012 | 25 | 150 | 0.0 | 4.8 | 0.00 | 0.00 | 0.00 | 67 | 1014.2 |
| 20260906073512 | 25 | 141 | 1.6 | 6.4 | 0.00 | 0.00 | 0.00 | 67 | 1014.2 |
| 20260906073025 | 25 | 136 | 3.2 | 6.4 | 0.00 | 0.00 | 0.00 | 67 | 1014.3 |
| 20260906072511 | 25 | 143 | 3.2 | 6.4 | 0.00 | 0.00 | 0.00 | 67 | 1014.3 |
| 20260906072014 | 25 | 145 | 3.2 | 6.4 | 0.00 | 0.00 | 0.00 | 68 | 1014.2 |
| 20260906071520 | 25 | 134 | 1.6 | 4.8 | 0.00 | 0.00 | 0.00 | 68 | 1014.1 |
| 20260906071012 | 25 | 140 | 0.0 | 4.8 | 0.00 | 0.00 | 0.00 | 68 | 1014.1 |
| 20260906070514 | 25 | 149 | 0.0 | 6.4 | 0.00 | 0.00 | 0.00 | 68 | 1014.2 |
| 20260906070021 | 25 | 125 | 3.2 | 6.4 | 0.00 | 0.00 | 0.00 | 68 | 1014.2 |
| 20260906065513 | 25 | 153 | 0.0 | 3.2 | 0.00 | 0.00 | 0.00 | 68 | 1014.2 |
| 20260906065009 | 25 | 153 | 0.0 | 3.2 | 0.00 | 0.00 | 0.00 | 68 | 1014.2 |
| 20260906064515 | 25 | 163 | 0.0 | 3.2 | 0.00 | 0.00 | 0.00 | 68 | 1014.2 |
| 20260906064010 | 25 | 153 | 0.0 | 8.0 | 0.00 | 0.00 | 0.00 | 68 | 1014.1 |
| 20260906063513 | 25 | 144 | 1.6 | 8.0 | 0.00 | 0.00 | 0.00 | 68 | 1013.9 |
| 20260906063019 | 25 | 132 | 0.0 | 3.2 | 0.00 | 0.00 | 0.00 | 69 | 1013.8 |
| 20260906062514 | 25 | 175 | 0.0 | 4.8 | 0.00 | 0.00 | 0.00 | 69 | 1014.0 |
| 20260906062013 | 25 | 134 | 0.0 | 8.0 | 0.00 | 0.00 | 0.00 | 69 | 1013.9 |
| 20260906061529 | 25 | 141 | 0.0 | 8.0 | 0.00 | 0.00 | 0.00 | 69 | 1013.9 |
| 20260906061011 | 25 | 147 | 3.2 | 8.0 | 0.00 | 0.00 | 0.00 | 70 | 1013.8 |
| 20260906060514 | 25 | 146 | 0.0 | 3.2 | 0.00 | 0.00 | 0.00 | 70 | 1013.8 |
| 20260906060021 | 25 | 111 | 0.0 | 3.2 | 0.00 | 0.00 | 0.00 | 71 | 1013.8 |
| 20260906055507 | 25 | 137 | 0.0 | 0.0 | 0.00 | 0.00 | 0.00 | 72 | 1013.8 |
| 20260906055010 | 25 | 127 | 0.0 | 0.0 | 0.00 | 0.00 | 0.00 | 72 | 1013.9 |
| 20260906054519 | 25 | 135 | 0.0 | 0.0 | 0.00 | 0.00 | 0.00 | 73 | 1013.9 |
| 20260906054013 | 25 | 135 | 0.0 | 0.0 | 0.00 | 0.00 | 0.00 | 73 | 1014.0 |
| 20260906053513 | 25 | 135 | 0.0 | 0.0 | 0.00 | 0.00 | 0.00 | 73 | 1013.9 |
| 20260906053026 | 25 | 135 | 0.0 | 0.0 | 0.00 | 0.00 | 0.00 | 72 | 1013.9 |
| 20260906052512 | 25 | 135 | 0.0 | 0.0 | 0.00 | 0.00 | 0.00 | 72 | 1014.1 |
| 20260906052004 | 25 | 135 | 0.0 | 0.0 | 0.00 | 0.00 | 0.00 | 72 | 1014.0 |
| 20260906051508 | 25 | 135 | 0.0 | 0.0 | 0.00 | 0.00 | 0.00 | 72 | 1014.0 |
| 20260906051007 | 25 | 135 | 0.0 | 0.0 | 0.00 | 0.00 | 0.00 | 71 | 1014.0 |
| 20260906050508 | 25 | 135 | 0.0 | 0.0 | 0.00 | 0.00 | 0.00 | 72 | 1014.0 |
| 20260906050015 | 25 | 170 | 0.0 | 0.0 | 0.00 | 0.00 | 0.00 | 71 | 1014.0 |
| 20260906045511 | 25 | 170 | 0.0 | 1.6 | 0.00 | 0.00 | 0.00 | 71 | 1014.0 |
| 20260906045010 | 25 | 169 | 0.0 | 1.6 | 0.00 | 0.00 | 0.00 | 71 | 1013.9 |
| 20260906044523 | 25 | 159 | 0.0 | 0.0 | 0.00 | 0.00 | 0.00 | 71 | 1013.9 |
| 20260906044013 | 25 | 163 | 0.0 | 0.0 | 0.00 | 0.00 | 0.00 | 71 | 1013.9 |
| 20260906043513 | 25 | 168 | 0.0 | 1.6 | 0.00 | 0.00 | 0.00 | 71 | 1013.9 |
| 20260906043024 | 25 | 211 | 0.0 | 1.6 | 0.00 | 0.00 | 0.00 | 70 | 1013.8 |
| 20260906042511 | 25 | 203 | 0.0 | 3.2 | 0.00 | 0.00 | 0.00 | 70 | 1014.0 |
| 20260906042003 | 25 | 226 | 0.0 | 3.2 | 0.00 | 0.00 | 0.00 | 70 | 1013.9 |
| 20260906041507 | 25 | 205 | 0.0 | 0.0 | 0.00 | 0.00 | 0.00 | 69 | 1013.9 |
| 20260906041009 | 25 | 231 | 0.0 | 0.0 | 0.00 | 0.00 | 0.00 | 69 | 1013.9 |
| 20260906040507 | 26 | 231 | 0.0 | 0.0 | 0.00 | 0.00 | 0.00 | 69 | 1013.9 |
| 20260906040021 | 26 | 231 | 0.0 | 0.0 | 0.00 | 0.00 | 0.00 | 68 | 1014.0 |
| 20260906035512 | 26 | 231 | 0.0 | 0.0 | 0.00 | 0.00 | 0.00 | 69 | 1014.1 |
| 20260906035016 | 26 | 232 | 0.0 | 0.0 | 0.00 | 0.00 | 0.00 | 68 | 1014.1 |
| 20260906034528 | 26 | 201 | 0.0 | 0.0 | 0.00 | 0.00 | 0.00 | 68 | 1014.1 |
| 20260906034015 | 26 | 171 | 0.0 | 0.0 | 0.00 | 0.00 | 0.00 | 68 | 1013.9 |
| 20260906033515 | 26 | 171 | 0.0 | 3.2 | 0.00 | 0.00 | 0.00 | 68 | 1013.9 |
| 20260906033037 | 26 | 226 | 0.0 | 3.2 | 0.00 | 0.00 | 0.00 | 68 | 1013.9 |
| 20260906032503 | 26 | 239 | 0.0 | 0.0 | 0.00 | 0.00 | 0.00 | 68 | 1013.9 |
| 20260906032008 | 26 | 208 | 0.0 | 0.0 | 0.00 | 0.00 | 0.00 | 68 | 1013.7 |
| 20260906031512 | 26 | 129 | 0.0 | 0.0 | 0.00 | 0.00 | 0.00 | 68 | 1013.6 |
| 20260906031008 | 26 | 129 | 0.0 | 0.0 | 0.00 | 0.00 | 0.00 | 68 | 1013.5 |
| 20260906030510 | 26 | 129 | 0.0 | 0.0 | 0.00 | 0.00 | 0.00 | 69 | 1013.4 |
| 20260906030021 | 26 | 129 | 0.0 | 0.0 | 0.00 | 0.00 | 0.00 | 69 | 1013.3 |
| 20260906025512 | 26 | 129 | 0.0 | 0.0 | 0.00 | 0.00 | 0.00 | 68 | 1013.3 |
| 20260906025017 | 26 | 129 | 0.0 | 0.0 | 0.00 | 0.00 | 0.00 | 68 | 1013.4 |
| 20260906024541 | 26 | 336 | 0.0 | 0.0 | 0.00 | 0.00 | 0.00 | 67 | 1013.3 |
| 20260906024014 | 26 | 336 | 0.0 | 0.0 | 0.00 | 0.00 | 0.00 | 68 | 1013.2 |
| 20260906023516 | 26 | 336 | 0.0 | 0.0 | 0.00 | 0.00 | 0.00 | 68 | 1013.2 |
| 20260906023026 | 27 | 336 | 0.0 | 0.0 | 0.00 | 0.00 | 0.00 | 68 | 1013.1 |
| 20260906022506 | 27 | 336 | 0.0 | 0.0 | 0.00 | 0.00 | 0.00 | 68 | 1013.1 |
| 20260906022006 | 27 | 336 | 0.0 | 0.0 | 0.00 | 0.00 | 0.00 | 68 | 1013.1 |
| 20260906021512 | 27 | 336 | 0.0 | 0.0 | 0.00 | 0.00 | 0.00 | 67 | 1013.1 |
| 20260906021012 | 27 | 336 | 0.0 | 0.0 | 0.00 | 0.00 | 0.00 | 68 | 1013.0 |
| 20260906020513 | 27 | 336 | 0.0 | 0.0 | 0.00 | 0.00 | 0.00 | 67 | 1013.1 |
| 20260906020023 | 27 | 336 | 0.0 | 0.0 | 0.00 | 0.00 | 0.00 | 67 | 1013.1 |
| 20260906015515 | 27 | 336 | 0.0 | 0.0 | 0.00 | 0.00 | 0.00 | 67 | 1013.0 |
| 20260906015015 | 27 | 336 | 0.0 | 0.0 | 0.00 | 0.00 | 0.00 | 68 | 1012.9 |
| 20260906014539 | 27 | 336 | 0.0 | 0.0 | 0.00 | 0.00 | 0.00 | 67 | 1012.8 |
| 20260906014016 | 27 | 336 | 0.0 | 0.0 | 0.00 | 0.00 | 0.00 | 68 | 1012.8 |
| 20260906013517 | 27 | 336 | 0.0 | 0.0 | 0.00 | 0.00 | 0.00 | 68 | 1012.6 |
| 20260906013027 | 27 | 336 | 0.0 | 0.0 | 0.00 | 0.00 | 0.00 | 68 | 1012.6 |
| 20260906012510 | 27 | 336 | 0.0 | 0.0 | 0.00 | 0.00 | 0.00 | 67 | 1012.6 |
| 20260906012008 | 27 | 336 | 0.0 | 0.0 | 0.00 | 0.00 | 0.00 | 67 | 1012.6 |
| 20260906011518 | 28 | 336 | 0.0 | 0.0 | 0.00 | 0.00 | 0.00 | 66 | 1012.5 |
| 20260906011013 | 28 | 336 | 0.0 | 0.0 | 0.00 | 0.00 | 0.00 | 66 | 1012.5 |
| 20260906010513 | 28 | 336 | 0.0 | 0.0 | 0.00 | 0.00 | 0.00 | 65 | 1012.6 |
| 20260906010028 | 28 | 336 | 0.0 | 0.0 | 0.00 | 0.00 | 0.00 | 64 | 1012.6 |
| 20260906005515 | 28 | 336 | 0.0 | 3.2 | 0.00 | 0.00 | 0.00 | 64 | 1012.6 |
| 20260906005017 | 28 | 336 | 0.0 | 3.2 | 0.00 | 0.00 | 0.00 | 64 | 1012.7 |
| 20260906004529 | 28 | 234 | 0.0 | 0.0 | 0.00 | 0.00 | 0.00 | 63 | 1012.7 |
| 20260906004014 | 28 | 182 | 0.0 | 0.0 | 0.00 | 0.00 | 0.00 | 62 | 1012.5 |
| 20260906003508 | 28 | 182 | 0.0 | 0.0 | 0.00 | 0.00 | 0.00 | 63 | 1012.7 |
| 20260906003014 | 28 | 241 | 0.0 | 3.2 | 0.00 | 0.00 | 0.00 | 63 | 1012.7 |
| 20260906002511 | 28 | 241 | 0.0 | 3.2 | 0.00 | 0.00 | 0.00 | 63 | 1012.7 |
| 20260906002012 | 28 | 268 | 0.0 | 4.8 | 0.00 | 0.00 | 0.00 | 63 | 1012.8 |
| 20260906001523 | 28 | 298 | 0.0 | 4.8 | 0.00 | 0.00 | 0.00 | 63 | 1012.6 |
| 20260906001015 | 28 | 263 | 0.0 | 3.2 | 0.00 | 0.00 | 0.00 | 63 | 1012.6 |
| 20260906000515 | 28 | 263 | 0.0 | 3.2 | 0.00 | 0.00 | 0.00 | 63 | 1012.6 |
| 20260906000032 | 28 | 263 | 0.0 | 1.6 | 0.00 | 0.00 | 0.00 | 63 | 1012.6 |
| 20260905235519 | 28 | 39 | 0.0 | 3.2 | 0.00 | 0.00 | 0.00 | 63 | 1012.4 |
| 20260905235015 | 28 | 39 | 1.6 | 6.4 | 0.00 | 0.00 | 0.00 | 63 | 1012.3 |
| 20260905234529 | 28 | 39 | 1.6 | 6.4 | 0.00 | 0.00 | 0.00 | 63 | 1012.2 |
| 20260905234014 | 27 | 38 | 3.2 | 8.0 | 0.00 | 0.00 | 0.00 | 64 | 1012.3 |
| 20260905233510 | 27 | 49 | 4.8 | 8.0 | 0.00 | 0.00 | 0.00 | 64 | 1012.4 |
| 20260905233015 | 27 | 37 | 3.2 | 8.0 | 0.00 | 0.00 | 0.00 | 64 | 1012.4 |
| 20260905232513 | 27 | 30 | 1.6 | 17.7 | 0.00 | 0.00 | 0.00 | 65 | 1012.5 |
| 20260905232013 | 28 | 342 | 6.4 | 17.7 | 0.00 | 0.00 | 0.00 | 65 | 1012.7 |
| 20260905231524 | 27 | 86 | 0.0 | 3.2 | 0.00 | 0.00 | 0.00 | 63 | 1012.5 |
| 20260905231015 | 27 | 86 | 0.0 | 3.2 | 0.00 | 0.00 | 0.00 | 65 | 1012.4 |
| 20260905230517 | 27 | 155 | 0.0 | 0.0 | 0.00 | 0.00 | 0.00 | 65 | 1012.4 |
| 20260905230006 | 27 | 304 | 0.0 | 0.0 | 0.00 | 0.00 | 0.00 | 66 | 1012.4 |
| 20260905225503 | 27 | 304 | 0.0 | 3.2 | 0.00 | 0.00 | 0.00 | 66 | 1012.5 |
| 20260905225006 | 27 | 304 | 0.0 | 6.4 | 0.00 | 0.00 | 0.00 | 67 | 1012.5 |
| 20260905224510 | 27 | 273 | 3.2 | 12.9 | 0.00 | 0.00 | 0.00 | 67 | 1012.6 |
| 20260905224011 | 27 | 290 | 4.8 | 14.5 | 0.00 | 0.00 | 0.00 | 66 | 1012.7 |
| 20260905223511 | 27 | 294 | 6.4 | 14.5 | 0.00 | 0.00 | 0.00 | 66 | 1012.7 |
| 20260905223019 | 27 | 321 | 9.7 | 27.4 | 0.00 | 0.00 | 0.00 | 65 | 1012.7 |
| 20260905222516 | 28 | 302 | 14.5 | 27.4 | 0.00 | 0.00 | 0.00 | 62 | 1012.9 |
| 20260905222016 | 29 | 313 | 12.9 | 22.5 | 0.00 | 0.00 | 0.00 | 58 | 1012.8 |
| 20260905221527 | 29 | 289 | 4.8 | 12.9 | 0.00 | 0.00 | 0.00 | 61 | 1012.8 |
| 20260905221014 | 29 | 302 | 0.0 | 0.0 | 0.00 | 0.00 | 0.00 | 60 | 1012.4 |
| 20260905220503 | 29 | 302 | 0.0 | 3.2 | 0.00 | 0.00 | 0.00 | 61 | 1012.3 |
| 20260905220008 | 29 | 302 | 0.0 | 12.9 | 0.00 | 0.00 | 0.00 | 61 | 1012.4 |
| 20260905215508 | 29 | 302 | 0.0 | 12.9 | 0.00 | 0.00 | 0.00 | 61 | 1012.3 |
| 20260905215009 | 29 | 306 | 6.4 | 11.3 | 0.00 | 0.00 | 0.00 | 62 | 1012.2 |
| 20260905214520 | 29 | 326 | 1.6 | 8.0 | 0.00 | 0.00 | 0.00 | 64 | 1012.1 |
| 20260905214011 | 29 | 321 | 0.0 | 3.2 | 0.00 | 0.00 | 0.00 | 64 | 1012.0 |
| 20260905213513 | 28 | 161 | 0.0 | 3.2 | 0.00 | 0.00 | 0.00 | 62 | 1012.3 |
| 20260905213025 | 28 | 106 | 1.6 | 20.9 | 0.00 | 0.00 | 0.00 | 63 | 1012.5 |
| 20260905212515 | 29 | 331 | 1.6 | 35.4 | 0.00 | 0.00 | 0.00 | 61 | 1012.6 |
| 20260905212017 | 29 | 302 | 22.5 | 48.3 | 0.00 | 0.00 | 0.00 | 58 | 1012.7 |
| 20260905211537 | 31 | 346 | 32.2 | 48.3 | 0.00 | 0.00 | 0.00 | 51 | 1012.9 |
| 20260905211017 | 32 | 324 | 19.3 | 30.6 | 0.00 | 0.00 | 0.00 | 48 | 1012.8 |
| 20260905210506 | 33 | 292 | 19.3 | 30.6 | 0.00 | 0.00 | 0.00 | 43 | 1012.5 |
| 20260905210010 | 35 | 286 | 11.3 | 22.5 | 0.00 | 0.00 | 0.00 | 38 | 1012.7 |
| 20260905205507 | 35 | 61 | 3.2 | 16.1 | 0.00 | 0.00 | 0.00 | 36 | 1012.4 |
| 20260905205011 | 36 | 144 | 8.0 | 17.7 | 0.00 | 0.00 | 0.00 | 36 | 1012.5 |
| 20260905204526 | 36 | 101 | 11.3 | 17.7 | 0.00 | 0.00 | 0.00 | 35 | 1012.6 |
| 20260905204013 | 36 | 153 | 6.4 | 19.3 | 0.00 | 0.00 | 0.00 | 36 | 1012.4 |
| 20260905203512 | 36 | 206 | 6.4 | 19.3 | 0.00 | 0.00 | 0.00 | 35 | 1012.4 |
| 20260905203027 | 36 | 155 | 9.7 | 20.9 | 0.00 | 0.00 | 0.00 | 36 | 1012.4 |
| 20260905202514 | 36 | 170 | 11.3 | 20.9 | 0.00 | 0.00 | 0.00 | 36 | 1012.1 |
| 20260905202014 | 36 | 140 | 8.0 | 19.3 | 0.00 | 0.00 | 0.00 | 36 | 1012.2 |
| 20260905201530 | 36 | 360 | 8.0 | 22.5 | 0.00 | 0.00 | 0.00 | 36 | 1012.3 |
| 20260905201007 | 36 | 142 | 11.3 | 27.4 | 0.00 | 0.00 | 0.00 | 36 | 1012.5 |
| 20260905200513 | 36 | 77 | 6.4 | 27.4 | 0.00 | 0.00 | 0.00 | 35 | 1012.7 |
| 20260905200018 | 37 | 148 | 11.3 | 25.7 | 0.00 | 0.00 | 0.00 | 35 | 1012.7 |